This is the latest recevied weather packets stored in our database for station/object OK1TOM-6. If no packets are shown the sender has not sent any weather packets the latest 10 day(s).
| Time | Temp. | Humidity | Pressure | Rain* | Wind** | Luminosity | Snow |
|---|---|---|---|---|---|---|---|
| 1777723541 | 21.11° C | 30% | 1025.2 hPa | 0 mm | - | - | - |
| 1777721731 | 20.56° C | 31% | 1025.6 hPa | 0 mm | - | - | - |
| 1777721128 | 20.56° C | 32% | 1025.6 hPa | 0 mm | - | - | - |
| 1777720524 | 20.56° C | 32% | 1025.8 hPa | 0 mm | - | - | - |
| 1777719921 | 20.56° C | 33% | 1025.9 hPa | 0 mm | - | - | - |
| 1777719317 | 20° C | 34% | 1025.8 hPa | 0 mm | - | - | - |
| 1777718774 | 20° C | 33% | 1026 hPa | 0 mm | - | - | - |
| 1777718171 | 20° C | 35% | 1026.1 hPa | 0 mm | - | - | - |
| 1777717567 | 20° C | 33% | 1026.2 hPa | 0 mm | - | - | - |
| 1777716964 | 19.44° C | 37% | 1026.3 hPa | 0 mm | - | - | - |
| 1777716360 | 20° C | 35% | 1026.3 hPa | 0 mm | - | - | - |
| 1777715757 | 20° C | 36% | 1026.4 hPa | 0 mm | - | - | - |
| 1777715154 | 20° C | 37% | 1026.6 hPa | 0 mm | - | - | - |
| 1777714550 | 19.44° C | 36% | 1026.5 hPa | 0 mm | - | - | - |
| 1777713946 | 19.44° C | 37% | 1026.7 hPa | 0 mm | - | - | - |
| 1777713343 | 18.89° C | 38% | 1026.8 hPa | 0 mm | - | - | - |
| 1777712740 | 18.89° C | 38% | 1026.9 hPa | 0 mm | - | - | - |
| 1777712136 | 18.33° C | 36% | 1026.9 hPa | 0 mm | - | - | - |
| 1777711533 | 18.89° C | 38% | 1026.8 hPa | 0 mm | - | - | - |
| 1777710930 | 17.78° C | 38% | 1027 hPa | 0 mm | - | - | - |
| 1777710326 | 18.33° C | 42% | 1027.1 hPa | 0 mm | - | - | - |
| 1777709723 | 17.78° C | 43% | 1027 hPa | 0 mm | - | - | - |
| 1777709119 | 17.22° C | 43% | 1027 hPa | 0 mm | - | - | - |
| 1777708516 | 17.22° C | 44% | 1027.1 hPa | 0 mm | - | - | - |
| 1777707972 | 16.67° C | 45% | 1027.1 hPa | 0 mm | - | - | - |
* Rain latest hour (hover to see other rain measurements)
** Current wind speed in m/s (hover to see current wind gust speed)